Preview of NWS' New Version of Forecast
This preview is not operational and should not be used for support decisions.

Regional Weather Roundup (RWR)

Issued by National Weather Service (NWS)

                            
000
ASUS44 KJAN 221510
RWRMS 

MISSISSIPPI HOURLY WEATHER ROUNDUP
NATIONAL WEATHER SERVICE JACKSON MS
1000 AM CDT MON APR 22 2019

NOTE: "FAIR: INDICATES FEW OR NO CLOUDS BELOW 12,000 FEET WITH NO
SIGNIFICANT WEATHER AND/OR OBSTRUCTIONS TO VISIBILITY.

MSZ001>002-007>008-010>013-018>021-025>028-034>036-221600-
NORTHWEST MISSISSIPPI
  
CITY           SKY/WX    TMP DP  RH WIND       PRES   REMARKS
BATESVILLE     FAIR      70  55  60 W12       30.19R                  
CLARKSDALE     SUNNY     73  57  56 S8        30.18S                  
CLEVELAND      FAIR      66  55  68 S8        30.19S                  
GREENWOOD      FAIR      69  54  58 SW7       30.20S                  
GREENVILLE     FAIR      68  58  70 S7        30.18S                  
OLIVE BRANCH   MOSUNNY   68  52  56 W12       30.19R                  
OXFORD         FAIR      68  52  56 SW10      30.20S                  
TUNICA           N/A     68  54  60 SW9       30.19R                  
WINONA         FAIR      66  52  59 SW5       30.20S                  
$$

MSZ003>006-009-014>017-022>024-029>033-037>039-221600-
NORTHEAST MISSISSIPPI
  
CITY           SKY/WX    TMP DP  RH WIND       PRES   REMARKS
ABERDEEN       FAIR      66  61  82 NW3       30.22S                  
COLUMBUS AFB   FAIR      68  53  58 CALM      30.20S                  
CORINTH        FAIR      70  52  52 W8        30.19R                  
GOLDN TRIANGLE FAIR      67  54  63 CALM      30.21F                  
TUPELO         FAIR      69  52  54 SW5       30.19F                  
$$

MSZ040-058-221600-
CENTRAL MISSISSIPPI
  
CITY           SKY/WX    TMP DP  RH WIND       PRES   REMARKS
JACKSON INTL   FAIR      68  49  50 SW3       30.20R                  
JACKSON HAWKNS FAIR      68  51  54 VRB3      30.21R                  
MADISON        FAIR      66  50  55 CALM      30.20R                  
MERIDIAN KEY   FAIR      68  50  52 CALM      30.21S                  
MERIDIAN NAS   FAIR      70  51  51 CALM      30.21F                  
RAYMOND        FAIR      68  54  60 SW7       30.20S                  
VICKSBURG VKS  SUNNY     68  55  64 VRB5      30.19F                  
$$

MSZ059>079-221600-
SOUTH MISSISSIPPI
  
CITY           SKY/WX    TMP DP  RH WIND       PRES   REMARKS
HATTIESBURG    FAIR      68  52  56 CALM      30.21F                  
LAUREL         SUNNY     67  52  56 CALM      30.21S                  
MCCOMB         FAIR      68  50  52 S6        30.20R                  
NATCHEZ        FAIR      68  55  63 VRB6      30.20R                  
PINE BELT      FAIR      67  51  56 CALM      30.22S                  
$$

MSZ080>082-221600-
COASTAL MISSISSIPPI
  
CITY           SKY/WX    TMP DP  RH WIND       PRES   REMARKS
BAY ST LOUIS   SUNNY     70  54  56 CALM      30.20S                  
BILOXI         FAIR      71  53  53 S7        30.20S                  
PASCAGOULA     FAIR      73  51  46 CALM      30.21S                  
GULFPORT       FAIR      70  54  56 VRB3      30.20R                  
$$

LAZ007>009-015>016-023>026-221600-
NORTHEAST LOUISIANA
  
CITY           SKY/WX    TMP DP  RH WIND       PRES   REMARKS
BASTROP        FAIR      68  59  71 S5        30.19R                  
TALLULAH/VBURG FAIR      66  56  70 S7        30.19F                  
VIDALIA        FAIR      66  55  67 SE7       30.19R                  
$$